Regional Weather Roundup
Issued by NWS Sterling, VA

Home | Current Version | Previous Version | Graphics & Text | Print | Product List | Glossary On
Versions: 1 2 3 4 5 6 7 8 9 10 11 12 13 14 15 16 17 18 19 20 21 22 23 24 25 26 27 28
000
ASUS41 KLWX 191011
RWRLWX

REGIONAL WEATHER ROUNDUP
NATIONAL WEATHER SERVICE BALTIMORE MD/WASHINGTON DC
600 AM EDT THU APR 19 2018

Note: "FAIR" indicates few or no clouds below 12,000 feet
with no significant weather and/or obstructions to visibility.
 TC=TEMPERATURE CELSIUS

 * =Non NWS site. Station does not report precipitation (e.g. rain,
    snow, etc.), thunder, or fog.

DCZ001-MDZ009-015-VAZ040>042-051-053>054-191100-
WASHINGTON METRO

CITY           SKY/WX    TMP DP  RH WIND       PRES   REMARKS
WASHINGTON NAT FAIR      52  39  61 NE10      29.65F
DULLES         MOCLDY    50  40  68 NW5       29.64F
ANDREWS AFB    FAIR      48  39  69 N9        29.65F
FT BELVOIR     FAIR      50  39  66 CALM      29.64F
QUANTICO       FAIR      48  42  80 NE9       29.66F
COLLEGE PARK*  FAIR      50  37  62 E5        29.64F
LEESBURG*      FAIR      50  43  76 N3        29.65S
MANASSAS*      FAIR      50  40  68 N3        29.67F
GAITHERSBURG*  FAIR      48  39  71 E7        29.59F

$$

MDZ006>007-011-014-191100-
BALTIMORE METRO

CITY           SKY/WX    TMP DP  RH WIND       PRES   REMARKS
BWI AIRPORT    MOCLDY    50  38  63 NE9       29.65F
MD SCIENCE CTR   N/A     52  37  56 MISG      29.66F
MARTIN STATE   CLOUDY    52  41  66 CALM      29.70S
ANNAPOLIS      CLOUDY    54  42  64 N14       29.66F
FORT MEADE*    FAIR      50  37  62 NE7       29.66F

$$

MDZ012-015-019>023-191100-
MARYLAND EASTERN SHORE

CITY           SKY/WX    TMP DP  RH WIND       PRES   REMARKS
OCEAN CITY     FAIR      49  49 100 NW7       29.59R
SALISBURY      FAIR      47  46  97 NW9       29.62R
BAY BRIDGE AP* CLOUDY    50  43  76 N7        29.68F
CAMBRIDGE*       N/A     50  45  81 N15       29.65R
EASTON*        CLOUDY    50  43  76 N10G17    29.71R

$$

MDZ017>025-191100-
SOUTHERN MARYLAND

CITY           SKY/WX    TMP DP  RH WIND       PRES   REMARKS
PATUXENT RIVER MOCLDY    52  45  77 N17       29.65S
ST INIGOES     CLOUDY    50  46  86 VRB5      29.64S
LEONARDTOWN*   CLOUDY    46  43  87 N6        29.66F

$$

MDZ003>005-191100-
NORTH CENTRAL MARYLAND

CITY           SKY/WX    TMP DP  RH WIND       PRES   REMARKS
FREDERICK*     CLOUDY    46  39  76 NE6       29.66F
HAGERSTOWN APT FAIR      45  43  93 NW8       29.64S FOG
WESTMINSTER*   MOCLDY    46  41  81 E3        29.63F

$$

MDZ501>502-191100-
WESTERN MARYLAND

CITY           SKY/WX    TMP DP  RH WIND       PRES   REMARKS
OAKLAND*       CLOUDY    41  41 100 W15G21    29.68R VSB 1/2 WCI  33
CUMBERLAND*    CLOUDY    46  46 100 CALM      29.73R

$$

VAZ025>031-191100-
SHENANDOAH VALLEY

CITY           SKY/WX    TMP DP  RH WIND       PRES   REMARKS
WINCHESTER*    CLOUDY    45  41  87 W5        29.69R
FRONT ROYAL*   CLOUDY    46  41  81 CALM      29.67R
LURAY*         DRIZZLE   50  43  76 SW6       29.70R
NEW MARKET*    CLOUDY    49  44  83 CALM      29.68R
STAUNTON*      RAIN      49  45  85 CALM      29.73R
WAYNESBORO*    CLOUDY    49  46  90 W3        29.72R

$$

WVZ021-048>050-054>055-191100-
EASTERN WEST VIRGINIA PANHANDLE

CITY           SKY/WX    TMP DP  RH WIND       PRES   REMARKS
MARTINSBURG    FAIR      45  43  93 W8        29.66S
PETERSBURG*    CLOUDY    47  44  89 CALM      29.70R

$$

VAZ036>039-050-191100-
CENTRAL FOOTHILLS

CITY           SKY/WX    TMP DP  RH WIND       PRES   REMARKS
CHARLOTTESVILL CLOUDY    51  42  71 CALM      29.67R
CULPEPER*      MOCLDY    47  41  78 CALM      29.68R
ORANGE*        MOCLDY    50  41  71 CALM      29.66S
GORDONSVILLE*  CLOUDY    50  44  80 E3        29.66S
WARRENTON*     FAIR      49  39  67 N6        29.65S

$$

VAZ055>057-191100-
NORTH AND CENTRAL PIEDMONT

CITY           SKY/WX    TMP DP  RH WIND       PRES   REMARKS
FREDERICKSBRG* FAIR      48  44  88 SE6       29.66S
STAFFORD*      FAIR      50  43  78 N8        29.69F

$$

NCZ024-NYZ072-PAZ021-071-VAZ022-071-191100-
OTHER REGIONAL OBSERVATIONS

CITY           SKY/WX    TMP DP  RH WIND       PRES   REMARKS
NEW YORK CITY  CLOUDY    43  36  76 VRB5      29.76R
PHILADELPHIA   CLOUDY    49  34  56 N14       29.72R
PITTSBURGH     DRIZZLE   38  36  92 NW14      29.71R WCI  30
ROANOKE        LGT RAIN  57  48  72 NW3G21    29.73R
RICHMOND       FAIR      50  47  89 N10       29.67R
RALEIGH        FAIR      64  50  60 SW13      29.70S

$$

ANZ530>537-191100-
MARINE OBSERVATIONS

STATION/POSITION TIME  TEMP    WIND        PRES
                       AIR SEA DIR/SP/G
                 (UTC) (F)     (DEG/KT/KT) (MB)
THOMAS PT LIGHT  1000   51 50   30/ 14/ 15 1005.1F
BALT KEY BRIDGE  0948   51     350/ 10/ 12 1005.1F
COVE POINT       0948   49     360/ 21/ 25 1004.8R
LEWISETTA        0948   50 55  360/ 13/ 20 1004.2R
SOLOMONS ISLAND  0948   50 52  340/ 12/ 15 1003.7R
PINEY POINT      0936          350/ 16/ 18   N/A

$$





USA.gov is the U.S. government's official web portal to all federal, state and local government web resources and services.